Regional Weather Roundup
Issued by NWS Little Rock, AR

Home | Current Version | Previous Version | Text Only | Print | Product List | Glossary Off
Versions: 1 2 3 4 5 6 7 8 9 10 11 12 13 14 15 16 17 18 19 20 21 22 23 24 25 26 27 28 29 30 31 32 33 34 35 36 37 38 39 40 41 42 43 44 45 46 47

000
ASUS44 KLZK 042305
RWRLZK

WEATHER ROUNDUP FOR ARKANSAS
NATIONAL WEATHER SERVICE LITTLE ROCK AR
600 PM CDT SAT JUL 04 2015

NOTE: "FAIR" INDICATES FEW OR NO CLOUDS BELOW 12,000 FEET WITH NO
SIGNIFICANT WEATHER AND/OR OBSTRUCTIONS TO VISIBILITY.

ARZ001-003-010-029-050000-
NORTHWEST ARKANSAS

CITY           SKY/WX    TMP DP  RH WIND       PRES   REMARKS
FAYETTEVILLE   CLOUDY    83  68  60 NE3       29.95F HX  86
FORT SMITH     MOSUNNY   88  68  51 SE3       29.90F HX  91
HARRISON       MOSUNNY   81  67  62 E6        29.97F
BENTONVILLE    MOSUNNY   82  64  54 E6        29.96F
ROGERS         SUNNY     84  68  58 VRB7      29.97S HX  87
SILOAM SPGS    MOSUNNY   82  66  57 CALM      29.95F HX  85
HIGHFILL       MOSUNNY   85  69  58 E7        29.95F HX  89
SPRINGDALE     MOSUNNY   84  68  58 NE7       29.98S HX  87
$$

ARZ004-005-016-050000-
NORTH CENTRAL ARKANSAS

CITY           SKY/WX    TMP DP  RH WIND       PRES   REMARKS
BATESVILLE     PTSUNNY   81  70  69 CALM      29.96R
FLIPPIN          N/A     82  70  65 E6        29.94S HX  86
MTN HOME       SUNNY     81  68  64 SE6       29.96S
$$

ARZ040-041-050000-
WEST CENTRAL ARKANSAS

CITY           SKY/WX    TMP DP  RH WIND       PRES   REMARKS
MENA           MOSUNNY   82  73  74 CALM      29.96F HX  88
MOUNT IDA      SUNNY     83  72  69 VRB3      29.94S HX  88
$$

ARZ009-017-025-026-028-050000-
NORTHEAST ARKANSAS

CITY           SKY/WX    TMP DP  RH WIND       PRES   REMARKS
JONESBORO      CLOUDY    79  72  79 S7        29.95S
NEWPORT        CLOUDY    81  70  69 CALM      29.97R
WALNUT RIDGE   CLOUDY    79  70  73 NE5       29.96R
BLYTHEVILLE    TSTM      75  75 100 SW5       29.97R FOG
$$

ARZ022-023-033-042-044-050000-
CENTRAL ARKANSAS

CITY           SKY/WX    TMP DP  RH WIND       PRES   REMARKS
LITTLE ROCK    MOSUNNY   83  70  64 S9        29.95R HX  87
N LITTLE ROCK  MOSUNNY   83  73  70 SW5       29.95R HX  89
JACKSONVILLE   SUNNY     84  71  65 S5        29.94S HX  89
SEARCY         CLOUDY    79  73  82 CALM      29.96F
HOT SPRINGS    MOSUNNY   83  72  69 S10       29.96R HX  88
RUSSELLVILLE   SUNNY     85  71  63 SE3       29.92S HX  90
CLINTON        FAIR      82  72  69 E3        29.96S HX  87
$$

ARZ036-050000-
EAST ARKANSAS

CITY           SKY/WX    TMP DP  RH WIND       PRES   REMARKS
WEST MEMPHIS   CLOUDY    77  72  84 CALM      29.97R
$$

ARZ050-053-066-070-073-050000-
SOUTHWEST ARKANSAS

CITY           SKY/WX    TMP DP  RH WIND       PRES   REMARKS
ARKADELPHIA    FAIR      85  74  69 SW9       29.96S HX  92
CAMDEN         MOSUNNY   79  68  69 MISG      29.98S
TEXARKANA      PTSUNNY   75  71  87 S8        29.95F
EL DORADO      CLOUDY    75  69  81 CALM      29.99R
DE QUEEN       PTSUNNY   79  73  82 SE5       29.93F
$$

ARZ056-057-069-050000-
SOUTHEAST ARKANSAS

CITY           SKY/WX    TMP DP  RH WIND       PRES   REMARKS
PINE BLUFF     SUNNY     81  68  64 SW6       29.98R
STUTTGART      MOSUNNY   81  70  69 MISG      29.96S
MONTICELLO     MOSUNNY   79  69  71 SW5       29.99S

$$




USA.gov is the U.S. government's official web portal to all federal, state and local government web resources and services.